Flight Track Log - Related Links

Times and Time Zones

All times are in EDT time to prevent confusion due to time zone crossing. See the N111VR flight status page for this flight to view local times or setup timezone preferences in your user account.

Time Position Orientation Groundspeed Altitude Reporting Facility
EDT Latitude Longitude Course Direction KTS MPH feet Rate Location/Type
Fri 04:16:17 PM 25.9167 -80.2325 86° East 167 192 1,200  Level Miami Center
Fri 04:16:55 PM 25.9189 -80.1978 86° East 200 230 2,000 787 Climbing Miami Center
Fri 04:17:18 PM 25.9208 -80.1806 83° East 199 229 2,000 1,271 Level Miami Center
Fri 04:18:20 PM 25.9250 -80.1094 86° East 226 260 3,800 1,452 Climbing Miami Center
Fri 04:19:22 PM 25.9308 -80.0203 86° East 241 277 5,000 581 Climbing Miami Center
Fri 04:20:24 PM 25.9375 -79.9325 85° East 281 323 5,000  Level Miami Center
Fri 04:21:26 PM 25.9589 -79.8550 73° East 267 307 5,000 528 Level Miami Center
Fri 04:22:29 PM 26.0142 -79.8108 36° Northeast 246 283 6,100 1,488 Climbing Miami Center
Fri 04:23:31 PM 26.0219 -79.7442 83° East 232 267 8,100 1,839 Climbing Miami Center
Fri 04:24:33 PM 26.0133 -79.6711 97° East 239 275 9,900 1,887 Climbing Miami Center
Fri 04:25:35 PM 26.0014 -79.5828 99° East 240 276 12,000 1,887 Climbing Miami Center
Fri 04:26:37 PM 25.9914 -79.5064 98° East 248 285 13,800 1,645 Climbing Miami Center
Fri 04:27:39 PM 25.9814 -79.4289 98° East 250 288 15,400 1,452 Climbing Miami Center
Fri 04:28:41 PM 25.9703 -79.3494 99° East 259 298 16,800 1,392 Climbing Miami Center
Fri 04:29:44 PM 25.9606 -79.2658 97° East 269 310 18,300 1,392 Climbing Miami Center
Fri 04:30:46 PM 25.9486 -79.1811 99° East 273 314 19,700 1,403 Climbing Miami Center
Fri 04:31:48 PM 25.9042 -79.0894 118° Southeast 295 339 21,200 1,258 Climbing Miami Center
Fri 04:32:50 PM 25.8467 -79.0225 134° Southeast 297 342 22,300 823 Climbing Miami Center
Fri 04:33:52 PM 25.7856 -78.9503 133° Southeast 308 354 22,900 726 Climbing Miami Center
Fri 04:34:54 PM 25.7156 -78.8769 137° Southeast 335 386 23,800 912 Climbing Miami Center
Fri 04:35:57 PM 25.6514 -78.8042 134° Southeast 334 384 24,800 960 Climbing Miami Center
Fri 04:36:59 PM 25.5806 -78.7397 141° Southeast 331 381 25,800 1,065 Climbing Miami Center
Fri 04:38:01 PM 25.4856 -78.6786 150° Southeast 330 380 27,000 1,016 Climbing Miami Center
Fri 04:39:03 PM 25.4081 -78.6267 149° Southeast 329 379 27,900 871 Climbing Miami Center
Fri 04:40:05 PM 25.3339 -78.5744 148° Southeast 321 369 28,800 823 Climbing Miami Center
Fri 04:41:07 PM 25.2614 -78.5150 143° Southeast 322 371 29,600 726 Climbing Miami Center
Fri 04:42:09 PM 25.1894 -78.4558 143° Southeast 322 371 30,300 677 Climbing Miami Center
Fri 04:43:11 PM 25.1164 -78.3969 144° Southeast 322 371 31,000 672 Climbing Miami Center
Fri 04:44:14 PM 25.0286 -78.3228 143° Southeast 328 377 31,700 576 Climbing Miami Center
Fri 04:45:16 PM 24.9561 -78.2556 140° Southeast 336 387 32,200 484 Climbing Miami Center
Fri 04:46:18 PM 24.8886 -78.1828 136° Southeast 339 390 32,700 484 Climbing Miami Center
Fri 04:47:20 PM 24.8253 -78.1061 132° Southeast 339 390 33,200 532 Climbing Miami Center
Fri 04:48:22 PM 24.7578 -78.0267 133° Southeast 339 390 33,800 581 Climbing Miami Center
Fri 04:49:24 PM 24.7056 -77.9408 124° Southeast 341 392 34,400 581 Climbing Miami Center
Fri 04:50:26 PM 24.6806 -77.8178 103° East 337 388 35,000 288 Climbing Miami Center
Fri 04:51:29 PM 24.6525 -77.7178 107° East 339 390 35,000  Level Miami Center
Fri 04:52:31 PM 24.6250 -77.6111 106° East 358 412 35,000  Level Miami Center
Fri 04:53:33 PM 24.5953 -77.5036 107° East 363 418 35,000  Level Miami Center
Fri 04:54:35 PM 24.5658 -77.3933 106° East 373 429 35,000  Level Miami Center
Fri 04:55:37 PM 24.5136 -77.2944 120° Southeast 373 429 35,000  Level Miami Center
Fri 04:56:39 PM 24.4133 -77.2122 143° Southeast 376 433 35,000  Level Miami Center
Fri 04:57:41 PM 24.3339 -77.1356 139° Southeast 378 435 35,000  Level Miami Center
Fri 04:58:43 PM 24.2550 -77.0583 138° Southeast 378 435 35,000  Level Miami Center
Fri 04:59:45 PM 24.1758 -76.9814 138° Southeast 378 435 35,000  Level Miami Center
Fri 05:00:47 PM 24.0978 -76.9039 138° Southeast 378 435 35,000  Level Miami Center
Fri 05:01:49 PM 24.0175 -76.8281 139° Southeast 378 435 35,000  Level Miami Center
Fri 05:02:51 PM 23.9225 -76.7364 139° Southeast 379 436 35,000  Level Miami Center
Fri 05:03:53 PM 23.8442 -76.6594 138° Southeast 379 436 35,000  Level Miami Center
Fri 05:04:55 PM 23.7644 -76.5831 139° Southeast 379 436 35,000  Level Miami Center
Fri 05:05:57 PM 23.6853 -76.5067 139° Southeast 379 436 35,000  Level Miami Center
Fri 05:06:59 PM 23.6044 -76.4289 139° Southeast 380 437 35,000  Level Miami Center
Fri 05:08:02 PM 23.5236 -76.3511 139° Southeast 384 442 35,000  Level Miami Center
Fri 05:09:04 PM 23.4253 -76.2572 139° Southeast 386 444 35,000  Level Miami Center
Fri 05:10:06 PM 23.3439 -76.1800 139° Southeast 387 445 35,000  Level Miami Center
Fri 05:11:08 PM 23.2622 -76.1017 139° Southeast 389 448 35,000  Level Miami Center
Fri 05:12:10 PM 23.1811 -76.0244 139° Southeast 389 448 35,000  Level Miami Center
Fri 05:13:12 PM 23.0994 -75.9467 139° Southeast 389 448 35,000  Level Miami Center
Fri 05:14:14 PM 23.0006 -75.8522 139° Southeast 390 449 35,000  Level Miami Center
Fri 05:15:16 PM 22.9172 -75.7736 139° Southeast 395 455 35,000  Level Miami Center
Fri 05:16:18 PM 22.8339 -75.6950 139° Southeast 396 456 35,000  Level Miami Center
Fri 05:17:20 PM 22.7500 -75.6167 139° Southeast 396 456 35,000  Level Miami Center
Fri 05:18:22 PM 22.6658 -75.5383 139° Southeast 396 456 35,000  Level Miami Center
Fri 05:19:23 PM 22.5811 -75.4586 139° Southeast 397 457 35,000  Level Miami Center
Fri 05:20:25 PM 22.4783 -75.3644 140° Southeast 400 460 35,000  Level Miami Center
Fri 05:21:27 PM 22.3931 -75.2847 139° Southeast 402 463 35,000  Level Miami Center
Fri 05:22:29 PM 22.3083 -75.2039 139° Southeast 403 464 35,000  Level Miami Center
Fri 05:23:31 PM 22.2219 -75.1250 140° Southeast 403 464 35,000  Level Miami Center
Fri 05:24:33 PM 22.1364 -75.0431 138° Southeast 405 466 35,000  Level Miami Center
Fri 05:25:35 PM 22.0497 -74.9631 139° Southeast 406 467 35,000  Level Miami Center
Fri 05:26:37 PM 21.9450 -74.8658 139° Southeast 408 470 35,000  Level Miami Center
Fri 05:27:39 PM 21.8578 -74.7858 140° Southeast 409 471 35,000  Level Miami Center
Fri 05:28:41 PM 21.7708 -74.7047 139° Southeast 409 471 35,000  Level Miami Center
Fri 05:29:43 PM 21.6828 -74.6197 138° Southeast 414 476 35,000  Level Miami Center
Fri 05:30:44 PM 21.5944 -74.5383 139° Southeast 417 480 35,000 49 Level Miami Center
Fri 05:31:46 PM 21.5083 -74.4586 139° Southeast 411 473 35,100 48 Climbing Miami Center
Fri 05:32:48 PM 21.4203 -74.3783 140° Southeast 410 472 35,100 -48 Level Miami Center
Fri 05:33:50 PM 21.3331 -74.2978 139° Southeast 410 472 35,000 -48 Descending Miami Center
Fri 05:34:52 PM 21.2469 -74.2186 139° Southeast 410 472 35,000 -290 Level Miami Center
Fri 05:35:54 PM 21.1403 -74.1208 139° Southeast 418 481 34,400 -532 Descending Miami Center
Fri 05:36:56 PM 21.0483 -74.0364 139° Southeast 429 494 33,900 -484 Descending Miami Center
Fri 05:37:58 PM 20.9558 -73.9517 139° Southeast 433 498 33,400 -484 Descending Miami Center
Fri 05:39:00 PM 20.8633 -73.8672 140° Southeast 436 502 32,900 -484 Descending Miami Center
Fri 05:40:02 PM 20.7708 -73.7822 139° Southeast 436 502 32,400 -484 Descending Miami Center
Fri 05:41:04 PM 20.6778 -73.6989 140° Southeast 436 502 31,900 -532 Descending Miami Center
Fri 05:42:06 PM 20.5664 -73.5978 140° Southeast 436 502 31,300 -435 Descending Miami Center
Fri 05:43:08 PM 20.4758 -73.5156 140° Southeast 431 496 31,000 -968 Descending Miami Center
Fri 05:44:10 PM 20.3869 -73.4356 140° Southeast 422 486 29,300 -1,694 Descending Miami Center
Fri 05:45:12 PM 20.3047 -73.3625 140° Southeast 392 451 27,500 -1,500 Descending Miami Center
Fri 05:46:14 PM 20.2206 -73.2864 140° Southeast 390 449 26,200 -1,210 Descending Miami Center
Fri 05:47:16 PM 20.1331 -73.2111 141° Southeast 398 458 25,000 -1,161 Descending Miami Center
Fri 05:49:00 PM 19.9898 -73.1282 151° Southeast  Level FlightAware Approximate
Fri 05:56:00 PM 19.4134 -72.7916 149° Southeast  Level FlightAware Approximate
Fri 05:57:00 PM 19.3324 -72.7411 149° Southeast  Level FlightAware Approximate
Fri 05:58:00 PM 19.2510 -72.6913 152° Southeast  Level FlightAware Approximate
Fri 05:59:00 PM 19.1678 -72.6451 152° Southeast  Level FlightAware Approximate
Fri 06:00:00 PM 19.0839 -72.6003 155° Southeast  Level FlightAware Approximate
Fri 06:01:00 PM 19.0044 -72.5473 148° Southeast  Level FlightAware Approximate
Fri 06:02:00 PM 18.9243 -72.4955 155° Southeast  Level FlightAware Approximate
Fri 06:03:00 PM 18.8393 -72.4530 155° Southeast  Level FlightAware Approximate
Fri 06:04:00 PM 18.7569 -72.4061 159° South  Level FlightAware Approximate
Fri 06:05:00 PM 18.6730 -72.3631 145° Southeast  Level FlightAware Approximate
Fri 06:06:00 PM 18.5924 -72.3129 155° Southeast  Level FlightAware Approximate
Fri 06:07:00 PM 18.5667 -72.3000 North  Level FlightAware Approximate
Fri 06:08:00 PM 18.5800 -72.2925 North  Level Estimated
Fri 06:09:00 PM 18.5800 -72.2925 North  Level Estimated
Fri 06:10:00 PM 18.5800 -72.2925 North  Level Estimated
Fri 06:11:00 PM 18.5800 -72.2925 North  Level Estimated
Fri 06:12:00 PM 18.5800 -72.2925 North  Level Estimated
Fri 06:13:00 PM 18.5800 -72.2925 North  Level Estimated
Fri 06:14:00 PM 18.5800 -72.2925 North  Level Estimated
Fri 06:15:00 PM 18.5800 -72.2925 North  Level Estimated
Fri 06:16:00 PM 18.5800 -72.2925 North  Level Estimated
Fri 06:17:00 PM 18.5800 -72.2925 North  Level Estimated
Fri 06:18:00 PM 18.5800 -72.2925 North  Level Estimated
Fri 06:19:00 PM 18.5800 -72.2925 North  Level Estimated
Fri 06:20:00 PM 18.5800 -72.2925 North  Level Estimated
Fri 06:21:00 PM 18.5800 -72.2925 North  Level Estimated
Fri 06:22:00 PM 18.5800 -72.2925 North  Level Estimated
Fri 06:23:00 PM 18.5800 -72.2925 North  Level Estimated
Fri 06:24:00 PM 18.5800 -72.2925 North  Level Estimated
Fri 06:25:00 PM 18.5800 -72.2925 North  Level Estimated
Fri 06:26:00 PM 18.5800 -72.2925 North  Level Estimated
Fri 06:27:00 PM 18.5800 -72.2925 North  Level Estimated

Login

Don't have an account? Register now (free) for customized features, flight alerts, and more!